Content
SEND FEEDBACK

Daily
Averages
Monthly
Summary
United States of America

DAYTON, WYOMING


Home > North America > United States > Wyoming
Elevation: 8059 feet     Latitude: 44 46N     Longitude: 107 32W

WEATHER
 
SELECT A DAY
Number of Records: 371,236;   Date Range: 1/1/95 - 11/24/14
 
SHARE

PRINT THIS DATA

[ ← Previous Day ]
WEATHER ALMANAC - FEBRUARY 13, 2013
[ Next Day → ]
[ °C ]   °F
Weather ElementAverageHighLow
Temperature31.7 °F42.1 °F (10:53 am)21 °F (1:53 am)
Dewpoint26.8 °F30.9 °F (1:53 pm)14 °F (1:53 am)
Humidity83.7 %100 % (6:35 pm)49 % (10:53 am)
Barometer29.97 in30.11 in (7:53 pm)29.82 in (4:53 am)
Wind Speed14.8 mph28.8 mph (4:33 pm)
Wind Gust34.5 mph (10:53 am)
Weather ElementAverage
Visibility5.3 mi
Wind DirectionW (266.6 °)

Weather ElementTotal
Precipitation0.52 in
Heating Degree Days33.5 (Base 65)
Averaged from 53 records on February 13, 2013
WEATHER CONDITIONS BREAKOUT
WIND DIRECTION BREAKOUT
WEATHER BY HOUR - FEBRUARY 13, 2013
[ °C ]   °F
Local TimeTemperatureDewpointHumidityBarometerVisibilityWind DirectionWind SpeedGust SpeedPrecipitationEventsConditions
1:53 AM21.0 °F14.0 °F74 %29.94 in10.0 miCalmClear
2:53 AM21.9 °F14.0 °F72 %29.93 in10.0 miSSW (210°)4.6 mphClear
3:53 AM25.0 °F16.0 °F69 %29.91 in10.0 miNNW (330°)4.6 mphOvercast
4:53 AM23.0 °F15.8 °F74 %29.82 in10.0 miWNW (290°)3.5 mphMostly Cloudy
5:53 AM25.0 °F16.0 °F69 %29.92 in10.0 miCalmOvercast
6:53 AM30.9 °F17.1 °F57 %29.92 in10.0 miSouth (180°)4.6 mphMostly Cloudy
7:53 AM28.9 °F17.1 °F61 %29.93 in10.0 miSouth (190°)3.5 mphMostly Cloudy
8:53 AM34.0 °F21.0 °F59 %29.91 in10.0 miEast (90°)3.5 mphOvercast
9:53 AM39.9 °F23.0 °F51 %29.88 in10.0 miNW (310°)19.6 mphMostly Cloudy
10:53 AM42.1 °F24.1 °F49 %29.90 in10.0 miNW (310°)25.3 mph34.5 mphMostly Cloudy
11:53 AM42.1 °F24.1 °F49 %29.90 in10.0 miNW (310°)21.9 mph28.8 mphPartly Cloudy
12:53 PM39.0 °F26.1 °F60 %29.92 in10.0 miNorth (350°)15.0 mphOvercast
1:53 PM34.0 °F30.9 °F89 %29.99 in9.0 miNNW (340°)13.8 mph0.00 inOvercast
2:15 PM33.8 °F30.2 °F87 %29.90 in4.0 miNNE (20°)17.3 mph0.00 inSnowLight Snow
2:22 PM33.8 °F30.2 °F87 %29.90 in4.0 miNorth (10°)15.0 mph0.01 inSnowLight Snow
2:32 PM33.8 °F30.2 °F87 %29.92 in1.8 miNNW (340°)15.0 mph0.01 inSnowLight Snow
2:39 PM33.8 °F30.2 °F87 %29.92 in0.5 miNNW (340°)17.3 mph26.5 mph0.01 inFog-SnowSnow
2:53 PM32.0 °F30.9 °F96 %30.05 in0.5 miNW (320°)15.0 mph0.03 inFog-SnowSnow
3:23 PM32.0 °F30.2 °F93 %29.94 in0.2 miNW (310°)13.8 mph0.05 inFog-SnowHeavy Snow
3:32 PM32.0 °F30.2 °F93 %29.93 in0.8 miNW (310°)16.1 mph0.06 inSnowLight Snow
3:36 PM32.0 °F30.2 °F93 %29.94 in2.0 miNW (310°)16.1 mph0.06 inSnowLight Snow
3:43 PM32.0 °F30.2 °F93 %29.94 in2.0 miWNW (300°)16.1 mph0.06 inSnowLight Snow
3:47 PM32.0 °F30.2 °F93 %29.94 in0.8 miWNW (300°)20.7 mph0.06 inSnowLight Snow
3:53 PM32.0 °F30.0 °F92 %30.04 in0.2 miWNW (290°)24.2 mph28.8 mph0.07 inFog-SnowHeavy Snow
4:01 PM32.0 °F30.2 °F93 %29.93 in0.5 miWest (280°)19.6 mph29.9 mph0.00 inFog-SnowSnow
4:03 PM32.0 °F30.2 °F93 %29.93 in1.0 miWNW (290°)20.7 mph29.9 mph0.00 inSnowLight Snow
4:07 PM32.0 °F30.2 °F93 %29.93 in3.0 miWNW (290°)19.6 mph0.00 inSnowLight Snow
4:19 PM33.8 °F30.2 °F87 %29.93 in9.0 miWNW (290°)17.3 mph0.00 inSnowLight Snow
4:33 PM33.8 °F30.2 °F87 %29.94 in1.5 miWNW (290°)28.8 mph33.4 mph0.00 inSnowLight Snow
4:40 PM33.8 °F30.2 °F87 %29.93 in1.0 miWest (280°)25.3 mph0.00 inSnowLight Snow
4:50 PM33.8 °F28.4 °F81 %29.93 in3.0 miWNW (290°)20.7 mph31.1 mph0.00 inSnowLight Snow
4:53 PM33.1 °F28.9 °F85 %30.05 in7.0 miWNW (290°)20.7 mph0.00 inSnowLight Snow
5:04 PM33.8 °F28.4 °F81 %29.95 in1.8 miWNW (300°)25.3 mph34.5 mph0.00 inSnowLight Snow
5:26 PM33.8 °F28.4 °F81 %29.95 in3.0 miWNW (300°)24.2 mph0.00 inSnowLight Snow
5:42 PM33.8 °F28.4 °F81 %29.95 in9.0 miNW (310°)21.9 mph0.00 inOvercast
5:53 PM33.1 °F28.9 °F85 %30.07 in8.0 miNW (320°)26.5 mph33.4 mph0.00 inOvercast
6:23 PM30.2 °F28.4 °F93 %29.99 in1.5 miNW (320°)16.1 mph0.00 inSnowLight Snow
6:35 PM30.2 °F30.2 °F100 %29.99 in1.2 miNW (320°)15.0 mph0.02 inSnowLight Snow
6:49 PM30.2 °F30.2 °F100 %29.99 in3.0 miWNW (300°)12.7 mph0.02 inSnowLight Snow
6:53 PM30.9 °F30.0 °F96 %30.08 in4.0 miWNW (300°)12.7 mph0.02 inSnowLight Snow
6:57 PM30.2 °F28.4 °F93 %29.99 in8.0 miWNW (300°)12.7 mph0.00 inSnowLight Snow
7:40 PM30.2 °F28.4 °F93 %30.00 in1.8 miWNW (300°)15.0 mph0.00 inSnowLight Snow
7:48 PM30.2 °F28.4 °F93 %30.00 in2.0 miNW (310°)13.8 mph0.00 inSnowLight Snow
7:53 PM30.9 °F28.9 °F92 %30.11 in4.0 miNW (310°)13.8 mph0.00 inSnowLight Snow
8:02 PM30.2 °F28.4 °F93 %30.01 in4.0 miWNW (300°)15.0 mph0.00 inSnowLight Snow
8:07 PM30.2 °F28.4 °F93 %30.00 in1.8 miWNW (300°)17.3 mph0.00 inSnowLight Snow
8:21 PM30.2 °F28.4 °F93 %30.00 in2.5 miWNW (290°)13.8 mph0.01 inSnowLight Snow
8:28 PM30.2 °F28.4 °F93 %30.00 in4.0 miWNW (290°)15.0 mph0.01 inSnowLight Snow
8:38 PM30.2 °F28.4 °F93 %30.00 in8.0 miWNW (290°)10.4 mph0.01 inSnowLight Snow
8:53 PM30.9 °F28.0 °F89 %30.09 in9.0 miWest (280°)9.2 mph0.01 inSnowLight Snow
9:53 PM30.9 °F26.1 °F82 %30.06 in10.0 miWNW (290°)8.1 mph0.00 inOvercast
10:53 PM28.9 °F25.0 °F85 %30.07 in10.0 miCalmOvercast
11:53 PM28.0 °F24.1 °F85 %30.09 in10.0 miNNW (340°)8.1 mphOvercast
Hourly data recorded from KSHR, located miles away from Dayton, Wyoming







STORIES FROM OUR PARTNERS